Location: Gerlach
(40.6516°N, 119.3568°W)
Time: 06:04:47
(UTC-07:00)

SR - Pass Details

Date: 15 February 2023
Orbit: 583 x 866 km, 66.7° (Epoch: 26 March)

Event Time Altitude Azimuth Distance (km) Brightness Sun altitude
Rises 20:13:53 0° 331° (NNW) 2,820 ? -31.1°
Reaches altitude 10° 20:16:07 10° 332° (NNW) 1,907 ? -31.6°
Enters shadow 20:16:57 15° 333° (NNW) 1,578 ? -31.7°
